Home   Weather   Tempe   Past weeks

Flag for USA Past Weather in Tempe, Arizona, USA — Yesterday and Last 2 Weeks

Now
76 °F

Clear.


Feels Like: 76 °F
Forecast: 72 / 104 °F
Wind: 6 mph from Southeast

Location: Phoenix Sky Harbor International Airport

Current Time: May 29, 2017 at 4:41:17 am

Latest Report: May 29, 2017 at 3:51 am


Visibility: 10 mi

Pressure: 29.72 "Hg

Humidity: 21%

Dew Point: 33 °F

Location of TempeLocation

Past Weather in Tempe — Graph

°F

Tempe Temperature Yesterday

Maximum temperature yesterday: 100 °F (at 3:51 pm)
Minimum temperature yesterday: 74 °F (at 4:51 am)
Average temperature yesterday: 88 °F

High & Low Weather Summary for the Past Weeks

 TemperatureHumidityPressure
High107 °F (May 24, 2:51 pm)37% (May 19, 4:51 am)29.89 "Hg (May 19, 4:51 am)
Low62 °F (May 16, 6:51 am)4% (May 25, 11:51 am)29.49 "Hg (May 24, 6:51 pm)
Average83 °F16%29.73 "Hg
* Reported May 14 2:51 am — May 29 2:51 am, Tempe. Weather by CustomWeather, © 2017

Note: Actual official high and low records may vary slightly from our data, if they occured in-between our weather recording intervals... More about our weather records

Advertising

Tempe Weather History for the Previous 24 Hours

Scroll right to see more
 ConditionsComfort  
Time TempWeatherWind HumidityBarometerVisibility
2:51 am
Mon, May 29
79 °FClear.No wind17%29.72 "Hg10 mi
1:51 am79 °FClear.5 mph16%29.72 "Hg10 mi
12:51 am87 °FClear.6 mph9%29.72 "Hg10 mi
11:51 pm
Sun, May 28
88 °FClear.3 mph11%29.73 "Hg10 mi
10:51 pm88 °FClear.3 mph9%29.73 "Hg10 mi
9:51 pm88 °FClear.No wind10%29.73 "Hg10 mi
8:51 pm95 °FPassing clouds.9 mph5%29.72 "Hg10 mi
7:51 pm97 °FPassing clouds.8 mph5%29.72 "Hg10 mi
6:51 pm98 °FPassing clouds.8 mph5%29.72 "Hg10 mi
5:51 pm99 °FPassing clouds.9 mph5%29.71 "Hg10 mi
4:51 pm100 °FPassing clouds.3 mph6%29.72 "Hg10 mi
3:51 pm100 °FPassing clouds.7 mph7%29.74 "Hg10 mi
2:51 pm99 °FPassing clouds.7 mph7%29.76 "Hg10 mi
1:51 pm98 °FPassing clouds.9 mph7%29.78 "Hg10 mi
12:51 pm96 °FPassing clouds.6 mph8%29.80 "Hg10 mi
11:51 am93 °FPassing clouds.5 mph10%29.82 "Hg10 mi
10:51 am90 °FPassing clouds.No wind12%29.83 "Hg10 mi
9:51 am88 °FPassing clouds.7 mph13%29.84 "Hg10 mi
8:51 am83 °FPassing clouds.7 mph16%29.85 "Hg10 mi
7:51 am79 °FPassing clouds.7 mph17%29.85 "Hg10 mi
6:51 am75 °FPassing clouds.7 mph19%29.84 "Hg10 mi
5:51 am74 °FScattered clouds.8 mph24%29.82 "Hg10 mi
4:51 am74 °FPassing clouds.No wind28%29.80 "Hg10 mi
Weather by CustomWeather, © 2017

See weather overviewHow to use our weather pages